Weather History for Valparaiso, IN

Change the Weather History Date:

Saturday, December 14, 2013

  Actual Average Record
Temperature  
Mean Temperature 24 °F 28 °F  
Max Temperature 26 °F 35 °F 54 °F (2011)
Min Temperature 22 °F 22 °F 2 °F (2010)
Degree Days  
Heating Degree Days 41 37  
Month to date heating degree days 583 481  
Since 1 July heating degree days 1969 1739  
Cooling Degree Days 0 0  
Month to date cooling degree days 0 0  
Year to date cooling degree days 810 713  
Moisture  
Dew Point 23 °F    
Average Humidity 97    
Maximum Humidity 100    
Minimum Humidity 86    
Precipitation  
Precipitation 0.17 in 0.06 in 1.87 in (2011)
Month to date precipitation 0.42 1.09  
Year to date precipitation 34.97 36.42  
Sea Level Pressure  
Sea Level Pressure 29.98 in    
Wind  
Wind Speed 10 mph (NE)    
Max Wind Speed 18 mph    
Max Gust Speed 22 mph    
Visibility 4 miles    
Events Snow    
T = Trace of Precipitation, MM = Missing Value Source: NWS Daily Summary

Daily Weather History Graph

Daily Weather History Graph

Search for Another Location

Airport:

Trip Planner

Search our weather history database for the weather conditions in past years. The results will help you decide how hot, cold, wet, or windy it might be!

Date:

Astronomy

Dec. 14, 2013 Rise Set
Actual Time 7:06 AM CST 4:18 PM CST
Civil Twilight 6:35 AM CST 4:50 PM CST
Nautical Twilight 6:00 AM CST 5:25 PM CST
Astronomical Twilight 5:26 AM CST 5:58 PM CST
Moon 2:41 PM CST (12/14) 4:25 AM CST (12/14)
Length of Visible Light 10h 14m
Length of Day
9h 12m
Waxing Gibbous, 94% of the Moon is Illuminated
Dec 14
Waxing Gibbous
Dec 17
Full
Dec 25
Last Quarter
Jan 1
New
Jan 7
First Quarter

Hourly Weather History & Observations

Time (CST) Temp. Windchill Dew Point Humidity Pressure Visibility Wind Dir Wind Speed Gust Speed Precip Events Conditions
12:14 AM 25.0 °F 14.8 °F 25.0 °F 100% 30.10 in 1.0 mi East 10.4 mph - 0.01 in Snow Light Snow
12:26 AM 25.0 °F 14.8 °F 25.0 °F 100% 30.09 in 0.8 mi East 10.4 mph - 0.02 in Snow Light Snow
12:53 AM 25.0 °F 16.3 °F 25.0 °F 100% 30.12 in 1.0 mi East 8.1 mph - 0.04 in Snow Light Snow
1:00 AM 25.0 °F 15.5 °F 25.0 °F 100% 30.09 in 0.8 mi East 9.2 mph - 0.00 in Snow Light Snow
1:15 AM 25.0 °F 16.3 °F 25.0 °F 100% 30.08 in 1.0 mi East 8.1 mph - 0.01 in Snow Light Snow
1:53 AM 25.0 °F 15.5 °F 25.0 °F 100% 30.11 in 1.0 mi ENE 9.2 mph - 0.02 in Snow Light Snow
2:53 AM 25.0 °F 14.8 °F 25.0 °F 100% 30.09 in 1.2 mi ENE 10.4 mph - 0.02 in Snow Light Snow
3:08 AM 25.0 °F 15.5 °F 25.0 °F 100% 30.05 in 2.0 mi ENE 9.2 mph - 0.00 in Snow Light Snow
3:15 AM 25.0 °F 14.8 °F 25.0 °F 100% 30.05 in 1.8 mi East 10.4 mph - 0.00 in Snow Light Snow
3:24 AM 24.1 °F 13.1 °F 24.1 °F 100% 30.05 in 2.5 mi East 11.5 mph - 0.00 in Snow Light Snow
3:37 AM 24.1 °F 13.1 °F 24.1 °F 100% 30.04 in 1.8 mi East 11.5 mph - 0.00 in Snow Light Snow
3:53 AM 24.1 °F 13.1 °F 24.1 °F 100% 30.06 in 2.0 mi East 11.5 mph - 0.01 in Snow Light Snow
4:08 AM 24.1 °F 12.5 °F 24.1 °F 100% 30.02 in 3.0 mi East 12.7 mph - 0.00 in Snow Light Snow
4:15 AM 24.1 °F 13.1 °F 24.1 °F 100% 30.02 in 2.0 mi East 11.5 mph - 0.00 in Snow Light Snow
4:30 AM 24.1 °F 12.5 °F 24.1 °F 100% 30.02 in 1.8 mi East 12.7 mph - 0.00 in Snow Light Snow
4:53 AM 24.1 °F 13.1 °F 24.1 °F 100% 30.04 in 1.2 mi East 11.5 mph - 0.01 in Snow Light Snow
5:53 AM 24.1 °F 12.5 °F 24.1 °F 100% 30.05 in 1.0 mi East 12.7 mph - 0.02 in Snow Light Snow
6:13 AM 24.1 °F 13.1 °F 24.1 °F 100% 30.01 in 0.8 mi ENE 11.5 mph - 0.01 in Snow Light Snow
6:32 AM 24.1 °F 12.0 °F 24.1 °F 100% 30.00 in 1.0 mi ENE 13.8 mph - 0.02 in Snow Light Snow
6:53 AM 24.1 °F 12.0 °F 24.1 °F 100% 30.03 in 1.0 mi ENE 13.8 mph - 0.03 in Snow Light Snow
7:29 AM 24.1 °F 12.0 °F 24.1 °F 100% 29.98 in 0.8 mi ENE 13.8 mph - 0.00 in Snow Light Snow
7:53 AM 23.0 °F 8.7 °F 23.0 °F 100% 30.00 in 1.0 mi ENE 18.4 mph - 0.00 in Snow Light Snow
8:53 AM 21.9 °F 9.2 °F 21.9 °F 100% 30.01 in 1.2 mi East 13.8 mph - 0.01 in Snow Light Snow
9:20 AM 21.9 °F 9.8 °F 21.9 °F 100% 29.97 in 2.5 mi ENE 12.7 mph - 0.00 in Snow Light Snow
9:33 AM 21.9 °F 9.8 °F 21.9 °F 100% 29.96 in 1.2 mi ENE 12.7 mph - 0.00 in Snow Light Snow
9:53 AM 21.9 °F 9.2 °F 21.9 °F 100% 29.98 in 1.0 mi ENE 13.8 mph - 0.00 in Snow Light Snow
10:53 AM 23.0 °F 11.1 °F 21.9 °F 96% 29.95 in 1.0 mi ENE 12.7 mph - 0.00 in Snow Light Snow
11:35 AM 23.0 °F 11.1 °F 23.0 °F 100% 29.90 in 2.0 mi ENE 12.7 mph - 0.00 in Snow Light Snow
11:53 AM 23.0 °F 11.7 °F 21.9 °F 96% 29.93 in 3.0 mi ENE 11.5 mph - 0.00 in Snow Light Snow
12:12 PM 23.0 °F 12.4 °F 23.0 °F 100% 29.88 in 1.8 mi NE 10.4 mph - 0.00 in Snow Light Snow
12:37 PM 23.0 °F 13.1 °F 21.9 °F 96% 29.87 in 2.0 mi NE 9.2 mph - 0.00 in Snow Light Snow
12:50 PM 24.8 °F 15.3 °F 21.2 °F 86% 29.86 in 1.2 mi NE 9.2 mph - 0.01 in Snow Light Snow
12:53 PM 24.1 °F 14.4 °F 21.9 °F 91% 29.90 in 1.2 mi NE 9.2 mph - 0.01 in Snow Light Snow
1:33 PM 24.1 °F 15.2 °F 23.0 °F 96% 29.86 in 2.0 mi NNE 8.1 mph - 0.00 in Snow Light Snow
1:53 PM 24.1 °F 16.0 °F 23.0 °F 96% 29.88 in 3.0 mi NNE 6.9 mph - 0.00 in Snow Light Snow
2:53 PM 24.1 °F 18.2 °F 21.9 °F 91% 29.90 in 10.0 mi NNE 4.6 mph - 0.00 in   Overcast
3:05 PM 24.1 °F 17.0 °F 23.0 °F 96% 29.86 in 7.0 mi North 5.8 mph - N/A   Overcast
3:15 PM 24.1 °F 16.0 °F 21.9 °F 91% 29.87 in 6.0 mi North 6.9 mph - 0.00 in Snow Light Snow
3:53 PM 24.1 °F 16.0 °F 21.9 °F 91% 29.90 in 9.0 mi North 6.9 mph - 0.00 in   Overcast
4:53 PM 23.0 °F 15.8 °F 21.0 °F 92% 29.91 in 10.0 mi North 5.8 mph - N/A   Overcast
5:53 PM 23.0 °F 15.8 °F 21.0 °F 92% 29.94 in 10.0 mi North 5.8 mph - 0.00 in   Overcast
6:14 PM 23.0 °F 14.7 °F 21.0 °F 92% 29.90 in 10.0 mi North 6.9 mph - N/A   Overcast
6:53 PM 23.0 °F 15.8 °F 21.0 °F 92% 29.94 in 10.0 mi North 5.8 mph - N/A   Overcast
7:53 PM 23.0 °F 18.4 °F 21.9 °F 96% 29.95 in 10.0 mi North 3.5 mph - N/A   Overcast
8:53 PM 24.1 °F 18.2 °F 23.0 °F 96% 29.95 in 10.0 mi North 4.6 mph - N/A   Overcast
9:53 PM 25.0 °F 19.3 °F 24.1 °F 96% 29.96 in 10.0 mi NW 4.6 mph - N/A   Overcast
10:53 PM 25.0 °F 13.1 °F 24.1 °F 96% 29.96 in 10.0 mi WNW 13.8 mph - N/A   Overcast
11:53 PM 24.1 °F 12.0 °F 21.9 °F 91% 29.96 in 10.0 mi WNW 13.8 mph - N/A   Overcast